TimeEDT,TemperatureF,Dew PointF,Humidity,Sea Level PressureIn,VisibilityMPH,Wind Direction,Wind SpeedMPH,Gust SpeedMPH,PrecipitationIn,Events,Conditions,WindDirDegrees,DateUTC
12:15 AM,64.4,64.4,100,30.20,1.0,ESE,8.1,-,N/A,,Overcast,110,2013-07-13 04:15:00
12:36 AM,64.4,64.4,100,30.20,1.0,ESE,8.1,-,N/A,,Overcast,110,2013-07-13 04:36:00
12:55 AM,66.2,64.4,94,30.20,1.2,East,4.6,-,N/A,,Overcast,100,2013-07-13 04:55:00
1:15 AM,66.2,64.4,94,30.20,1.0,East,8.1,-,N/A,,Overcast,90,2013-07-13 05:15:00
1:35 AM,64.4,64.4,100,30.20,0.8,East,6.9,-,N/A,,Overcast,100,2013-07-13 05:35:00
1:55 AM,64.4,64.4,100,30.20,0.8,East,6.9,-,N/A,,Overcast,90,2013-07-13 05:55:00
2:15 AM,64.4,64.4,100,30.20,0.8,East,4.6,-,N/A,,Overcast,90,2013-07-13 06:15:00
2:35 AM,64.4,64.4,100,30.21,1.0,East,6.9,-,N/A,,Overcast,90,2013-07-13 06:35:00
2:55 AM,64.4,64.4,100,30.21,0.5,NE,5.8,-,N/A,,Overcast,50,2013-07-13 06:55:00
3:15 AM,64.4,62.6,94,30.22,0.2,ENE,5.8,-,N/A,,Overcast,60,2013-07-13 07:15:00
3:35 AM,64.4,62.6,94,30.23,0.2,ENE,5.8,-,N/A,,Overcast,60,2013-07-13 07:35:00
3:55 AM,64.4,62.6,94,30.23,0.2,NE,8.1,-,N/A,,Overcast,40,2013-07-13 07:55:00
4:15 AM,64.4,62.6,94,30.24,0.5,NE,9.2,-,N/A,,Overcast,40,2013-07-13 08:15:00
4:35 AM,62.6,60.8,94,30.24,1.2,NE,8.1,-,N/A,,Overcast,40,2013-07-13 08:35:00
4:55 AM,62.6,60.8,94,30.25,2.5,NE,9.2,-,N/A,,Overcast,50,2013-07-13 08:55:00
5:15 AM,64.4,62.6,94,30.25,3.0,NE,6.9,-,N/A,,Overcast,50,2013-07-13 09:15:00
5:35 AM,64.4,62.6,94,30.26,5.0,ENE,8.1,-,N/A,,Overcast,60,2013-07-13 09:35:00
5:55 AM,64.4,62.6,94,30.26,4.0,ENE,8.1,-,N/A,,Overcast,60,2013-07-13 09:55:00
6:15 AM,64.4,64.4,100,30.26,2.5,ENE,9.2,-,N/A,,Overcast,70,2013-07-13 10:15:00
6:35 AM,64.4,64.4,100,30.27,3.0,ENE,9.2,-,N/A,,Overcast,70,2013-07-13 10:35:00
6:55 AM,64.4,64.4,100,30.27,2.0,ENE,10.4,-,N/A,,Overcast,70,2013-07-13 10:55:00
7:15 AM,64.4,62.6,94,30.28,4.0,ENE,9.2,-,N/A,,Overcast,70,2013-07-13 11:15:00
7:35 AM,66.2,64.4,94,30.28,8.0,East,10.4,-,N/A,,Overcast,80,2013-07-13 11:35:00
7:55 AM,66.2,64.4,94,30.29,10.0,East,10.4,-,N/A,,Overcast,90,2013-07-13 11:55:00
8:15 AM,66.2,66.2,100,30.29,10.0,East,8.1,-,N/A,,Overcast,90,2013-07-13 12:15:00
8:35 AM,66.2,66.2,100,30.30,10.0,East,8.1,-,N/A,,Overcast,80,2013-07-13 12:35:00
8:55 AM,66.2,64.4,94,30.30,10.0,East,8.1,-,N/A,,Overcast,90,2013-07-13 12:55:00
9:15 AM,69.8,66.2,88,30.30,10.0,East,11.5,-,N/A,,Overcast,100,2013-07-13 13:15:00
9:35 AM,69.8,66.2,88,30.29,10.0,ESE,10.4,-,N/A,,Overcast,120,2013-07-13 13:35:00
9:55 AM,71.6,66.2,83,30.29,10.0,ESE,10.4,-,N/A,,Overcast,110,2013-07-13 13:55:00
10:15 AM,71.6,66.2,83,30.30,10.0,ESE,9.2,-,N/A,,Mostly Cloudy,120,2013-07-13 14:15:00
10:35 AM,71.6,66.2,83,30.30,10.0,SSE,8.1,-,N/A,,Overcast,150,2013-07-13 14:35:00
10:55 AM,71.6,66.2,83,30.31,10.0,ESE,8.1,-,N/A,,Overcast,120,2013-07-13 14:55:00
11:15 AM,73.4,68.0,83,30.31,10.0,SE,6.9,-,N/A,,Overcast,140,2013-07-13 15:15:00
11:35 AM,73.4,69.8,88,30.32,10.0,SSE,6.9,-,N/A,,Overcast,150,2013-07-13 15:35:00
11:55 AM,73.4,68.0,83,30.32,10.0,Calm,Calm,-,N/A,,Overcast,0,2013-07-13 15:55:00
12:15 PM,73.4,68.0,83,30.31,10.0,NNW,8.1,-,N/A,,Overcast,340,2013-07-13 16:15:00
12:35 PM,73.4,68.0,83,30.31,10.0,North,6.9,-,N/A,,Overcast,360,2013-07-13 16:35:00
12:55 PM,71.6,66.2,83,30.32,10.0,NNE,8.1,-,N/A,,Overcast,30,2013-07-13 16:55:00
1:15 PM,71.6,66.2,83,30.32,7.0,NE,8.1,-,N/A,,Overcast,50,2013-07-13 17:15:00
1:35 PM,69.8,66.2,88,30.32,4.0,NE,9.2,-,N/A,,Overcast,50,2013-07-13 17:35:00
1:55 PM,71.6,66.2,83,30.32,10.0,ENE,10.4,-,N/A,,Overcast,70,2013-07-13 17:55:00
2:15 PM,71.6,66.2,83,30.32,10.0,NE,10.4,-,N/A,,Overcast,50,2013-07-13 18:15:00
2:35 PM,71.6,66.2,83,30.32,10.0,East,8.1,-,N/A,,Overcast,80,2013-07-13 18:35:00
2:55 PM,73.4,66.2,78,30.32,10.0,NE,8.1,-,N/A,,Overcast,50,2013-07-13 18:55:00
3:15 PM,73.4,68.0,83,30.32,10.0,NE,8.1,-,N/A,,Overcast,50,2013-07-13 19:15:00
3:35 PM,73.4,68.0,83,30.32,10.0,NE,6.9,-,N/A,,Overcast,50,2013-07-13 19:35:00
3:55 PM,71.6,66.2,83,30.31,10.0,NE,9.2,-,N/A,,Overcast,50,2013-07-13 19:55:00
4:15 PM,69.8,66.2,88,30.31,10.0,ENE,8.1,-,N/A,,Overcast,70,2013-07-13 20:15:00
4:35 PM,69.8,66.2,88,30.31,10.0,ENE,9.2,-,N/A,,Overcast,60,2013-07-13 20:35:00
4:55 PM,69.8,66.2,88,30.31,10.0,East,9.2,-,N/A,,Overcast,80,2013-07-13 20:55:00
5:15 PM,69.8,66.2,88,30.30,10.0,East,10.4,-,N/A,,Overcast,90,2013-07-13 21:15:00
5:35 PM,71.6,66.2,83,30.30,10.0,East,5.8,-,N/A,,Overcast,90,2013-07-13 21:35:00
5:55 PM,71.6,68.0,88,30.31,10.0,East,4.6,-,N/A,,Overcast,100,2013-07-13 21:55:00
6:15 PM,69.8,66.2,88,30.31,6.0,ENE,6.9,-,N/A,,Overcast,70,2013-07-13 22:15:00
6:35 PM,69.8,68.0,94,30.31,8.0,East,5.8,-,N/A,,Overcast,100,2013-07-13 22:35:00
6:55 PM,69.8,68.0,94,30.30,10.0,SE,4.6,-,N/A,,Overcast,130,2013-07-13 22:55:00
7:15 PM,69.8,68.0,94,30.31,10.0,SSE,5.8,-,N/A,,Overcast,150,2013-07-13 23:15:00
7:35 PM,69.8,68.0,94,30.31,10.0,SSE,4.6,-,N/A,,Overcast,150,2013-07-13 23:35:00
7:55 PM,69.8,68.0,94,30.31,10.0,SSE,4.6,-,N/A,,Overcast,160,2013-07-13 23:55:00
8:15 PM,69.8,68.0,94,30.31,10.0,Calm,Calm,-,N/A,,Overcast,0,2013-07-14 00:15:00
8:35 PM,69.8,66.2,88,30.31,10.0,Calm,Calm,-,N/A,,Mostly Cloudy,0,2013-07-14 00:35:00
8:55 PM,69.8,66.2,88,30.31,10.0,Calm,Calm,-,N/A,,Scattered Clouds,0,2013-07-14 00:55:00
9:15 PM,66.2,64.4,94,30.31,10.0,Calm,Calm,-,N/A,,Mostly Cloudy,0,2013-07-14 01:15:00
9:35 PM,66.2,64.4,94,30.31,10.0,East,3.5,-,N/A,,Overcast,90,2013-07-14 01:35:00
9:55 PM,69.8,68.0,94,30.32,10.0,Calm,Calm,-,N/A,,Overcast,0,2013-07-14 01:55:00
10:15 PM,69.8,68.0,94,30.31,10.0,Calm,Calm,-,N/A,,Overcast,0,2013-07-14 02:15:00
10:35 PM,69.8,68.0,94,30.31,10.0,Calm,Calm,-,0.01,,Overcast,0,2013-07-14 02:35:00
10:55 PM,69.8,68.0,94,30.31,10.0,South,3.5,-,0.01,,Overcast,170,2013-07-14 02:55:00
11:15 PM,69.8,68.0,94,30.31,10.0,South,3.5,-,N/A,,Overcast,190,2013-07-14 03:15:00
11:35 PM,69.8,69.8,100,30.31,10.0,South,3.5,-,N/A,,Overcast,180,2013-07-14 03:35:00
11:55 PM,71.6,69.8,94,30.31,9.0,SW,3.5,-,N/A,,Overcast,230,2013-07-14 03:55:00